This demonstration page uses our WeatherBlox Daily Observations layout. Learn more.

Hourly Observations for July 26, 2020

Temp ( °F °C ) Dew Point ( °F °C ) Humidity (%) Winds ( mph kmh ) Pressure ( in mb ) Visibility ( mi km ) Precip ( " mm )
12:15 am 00:15 Mostly Cloudy 80 26.6 70 21.2 72 72 WSW 8 13 29.89 1012 10 16.0934 0 0
12:35 am 00:35 Cloudy 81 27 70 21.1 70 70 WSW 13 20 29.9 1013 10 16.0934 0 0
12:55 am 00:55 Cloudy with Nearby Thunderstorms 78 25.5 69 20.7 75 75 NNW 14 22 29.9 1013 10 16.0934 0 0
1:15 am 01:15 Cloudy 73 23 67 19.4 80 80 N 14 22 29.95 1014 10 16.0934 0 0
1:35 am 01:35 Mostly Cloudy 73 22.6 67 19.5 83 83 NNE 20 31 29.95 1014 10 16.0934 0 0
1:55 am 01:55 Partly Cloudy 72 22 68 19.9 88 88 NE 15 24 29.94 1014 10 16.0934 0 0
2:15 am 02:15 Clear 72 22.1 68 19.8 87 87 NE 13 20 29.94 1014 10 16.0934 0 0
2:35 am 02:35 Partly Cloudy 72 22 68 19.9 88 88 ENE 8 13 29.94 1014 10 16.0934 0 0
2:55 am 02:55 Clear 72 22 67 19.7 87 87 E 8 13 29.93 1014 10 16.0934 0 0
3:15 am 03:15 Clear 72 22 67 19.7 87 87 E 9 15 29.92 1013 10 16.0934 0 0
3:35 am 03:35 Clear 72 22.2 67 19.7 86 86 E 10 17 29.92 1013 10 16.0934 0 0
3:55 am 03:55 Clear 72 22.1 68 19.8 87 87 ESE 10 17 29.92 1013 10 16.0934 0 0
4:15 am 04:15 Clear 72 22 68 19.8 87 87 ESE 9 15 29.91 1013 10 16.0934 0 0
4:35 am 04:35 Clear 72 22 68 20 88 88 ESE 8 13 29.9 1013 10 16.0934 0 0
4:55 am 04:55 Clear 71 21.7 68 20 90 90 SSE 6 9 29.89 1012 10 16.0934 0 0
5:15 am 05:15 Clear 71 21.6 68 20.1 91 91 SSE 8 13 29.88 1012 10 16.0934 0 0
5:35 am 05:35 Clear 71 21.6 68 20.2 92 92 SSE 5 7 29.88 1012 10 16.0934 0 0
5:55 am 05:55 Clear 71 21.8 69 20.5 92 92 SSE 6 9 29.87 1012 10 16.0934 0 0
6:15 am 06:15 Clear 71 21.7 69 20.5 93 93 SSE 6 9 29.87 1012 10 16.0934 0 0
6:35 am 06:35 Sunny 72 22 69 20.6 92 92 SSE 8 13 29.88 1012 10 16.0934 0 0
6:55 am 06:55 Sunny 72 22 70 20.9 94 94 S 6 9 29.88 1012 10 16.0934 0 0
7:15 am 07:15 Sunny 73 22.6 70 21.2 92 92 S 9 15 29.87 1011 10 16.0934 0 0
7:35 am 07:35 Sunny 74 23.4 71 21.5 89 89 SSW 6 9 29.87 1011 10 16.0934 0 0
7:55 am 07:55 Sunny 75 23.7 71 21.5 88 88 S 7 11 29.87 1011 10 16.0934 0 0
8:15 am 08:15 Sunny 76 24.3 71 21.5 84 84 SSW 7 11 29.88 1012 10 16.0934 0 0
8:35 am 08:35 Sunny 78 25.4 71 21.7 80 80 SW 8 13 29.88 1012 10 16.0934 0 0
8:55 am 08:55 Sunny 78 25.8 70 21.1 75 75 SW 9 15 29.87 1012 10 16.0934 0 0
9:15 am 09:15 Sunny 78 25.6 70 21.3 77 77 SW 9 15 29.87 1012 10 16.0934 0 0
9:35 am 09:35 Sunny 78 25.8 70 21 75 75 WSW 7 11 29.89 1012 10 16.0934 0 0
9:55 am 09:55 Sunny 80 26.5 70 21.1 72 72 WSW 6 9 29.87 1012 10 16.0934 0 0
10:15 am 10:15 Sunny 80 26.7 70 21 71 71 WSW 6 9 29.88 1012 10 16.0934 0 0
10:35 am 10:35 Sunny 82 27.6 70 21.1 68 68 W 7 11 29.88 1012 10 16.0934 0 0
10:55 am 10:55 Sunny 82 27.5 69 20.7 66 66 NW 6 9 29.88 1012 10 16.0934 0 0
11:15 am 11:15 Sunny 82 27.7 70 21.3 68 68 WNW 3 6 29.9 1012 10 16.0934 0 0
11:35 am 11:35 Sunny 83 28.2 71 21.7 68 68 N 3 6 29.89 1012 10 16.0934 0 0
11:55 am 11:55 Sunny 82 27.9 72 22.1 71 71 N 3 6 29.88 1012 10 16.0934 0 0
12:15 pm 12:15 Mostly Cloudy 82 27.6 72 22.1 72 72 NE 8 13 29.9 1012 10 16.0934 0 0
12:35 pm 12:35 Cloudy 84 28.8 73 23 71 71 NE 8 13 29.9 1012 10 16.0934 0 0
12:55 pm 12:55 Mostly Cloudy 82 28 72 22.1 70 70 ENE 6 9 29.89 1012 10 16.0934 0 0
1:15 pm 13:15 Mostly Cloudy 84 29.1 72 22.4 67 67 NE 8 13 29.89 1012 10 16.0934 0 0
1:35 pm 13:35 Mostly Cloudy 84 28.7 72 22.2 68 68 ENE 6 9 29.89 1012 10 16.0934 0 0
1:55 pm 13:55 Mostly Cloudy 85 29.6 72 22.2 64 64 NNE 8 13 29.89 1012 10 16.0934 0 0
2:15 pm 14:15 Mostly Cloudy 84 28.8 72 22.4 68 68 ENE 7 11 29.89 1012 10 16.0934 0 0
2:35 pm 14:35 Cloudy 83 28.6 74 23.2 73 73 N 9 15 29.89 1012 10 16.0934 0 0
2:55 pm 14:55 Cloudy with Light Rain 81 27.2 75 23.9 82 82 N 8 13 29.92 1013 10 16.0934 0 0
3:15 pm 15:15 Cloudy 81 27.3 75 23.9 82 82 N 7 11 29.92 1013 10 16.0934 0 0
3:35 pm 15:35 Mostly Cloudy with Light Rain 82 27.8 74 23.5 77 77 NNE 10 17 29.9 1013 10 16.0934 0 0
3:55 pm 15:55 Partly Cloudy 83 28.1 73 23 74 74 N 14 22 29.89 1012 10 16.0934 0 0
4:15 pm 16:15 Partly Cloudy 82 27.6 73 22.9 76 76 N 13 20 29.89 1012 10 16.0934 0 0
4:35 pm 16:35 Partly Cloudy 82 27.5 73 22.7 75 75 N 14 22 29.9 1012 10 16.0934 0 0
4:55 pm 16:55 Sunny 82 27.7 73 22.9 75 75 NNE 15 24 29.9 1012 10 16.0934 0 0
5:15 pm 17:15 Sunny 81 27 72 22 74 74 NNE 15 24 29.87 1012 10 16.0934 0 0
5:35 pm 17:35 Sunny 80 26.4 72 22 77 77 NNE 12 19 29.88 1012 10 16.0934 0 0
5:55 pm 17:55 Sunny 79 26.2 71 21.9 77 77 NNE 9 15 29.88 1012 10 16.0934 0 0
6:15 pm 18:15 Sunny 79 26 72 22.1 79 79 NE 9 15 29.87 1011 10 16.0934 0 0
6:35 pm 18:35 Sunny 78 25.8 72 22.1 80 80 NNE 9 15 29.88 1012 10 16.0934 0 0
6:55 pm 18:55 Mostly Cloudy 78 25.5 72 22.3 83 83 NNE 7 11 29.9 1013 10 16.0934 0 0
7:15 pm 19:15 Cloudy 77 25 73 22.5 86 86 N 6 9 29.92 1013 10 16.0934 0 0
7:35 pm 19:35 Cloudy 77 25 73 22.5 86 86 NNE 7 11 29.92 1013 10 16.0934 0 0
7:55 pm 19:55 Cloudy 76 24.6 73 22.5 88 88 NE 7 11 29.93 1014 10 16.0934 0 0
8:15 pm 20:15 Cloudy 76 24.5 73 22.6 89 89 ENE 8 13 29.93 1014 10 16.0934 0 0
8:35 pm 20:35 Cloudy 76 24.3 73 22.5 90 90 E 10 17 29.93 1014 10 16.0934 0 0
8:55 pm 20:55 Mostly Cloudy 76 24.3 72 22.1 88 88 ENE 7 11 29.94 1014 10 16.0934 0 0
9:15 pm 21:15 Mostly Cloudy 75 24 72 22.2 90 90 NNE 10 17 29.95 1014 10 16.0934 0 0
9:35 pm 21:35 Cloudy 75 24 72 22.3 90 90 ENE 8 13 29.96 1015 10 16.0934 0 0
9:55 pm 21:55 Mostly Cloudy 75 23.7 72 22.2 91 91 ENE 7 11 29.97 1015 10 16.0934 0 0
10:15 pm 22:15 Partly Cloudy 74 23.5 72 22 91 91 ENE 6 9 29.98 1015 10 16.0934 0 0
10:35 pm 22:35 Clear 73 23 71 21.9 94 94 ENE 5 7 29.98 1015 10 16.0934 0 0
10:55 pm 22:55 Clear 73 23 71 21.9 94 94 Calm 29.97 1015 10 16.0934 0 0
11:15 pm 23:15 Clear 73 22.7 71 21.8 95 95 NE 3 6 29.97 1015 10 16.0934 0 0
11:35 pm 23:35 Clear 73 22.5 71 21.8 96 96 ENE 3 6 29.98 1015 10 16.0934 0 0
11:55 pm 23:55 Clear 72 22.2 71 21.6 96 96 Calm 29.97 1015 7 11.26538 0 0

Powered by AerisWeather